カタログに戻る

COSMOS 644

運用中軍事LEO
NORAD 7268·PAYLOAD·🇷🇺 Russia

打ち上げ Apr 23, 1974 から Plesetsk Cosmodrome

Loading…

次のパス (今後24時間)

TLE

最新Source: Space-Track

元期: Sep 14, 2026, 10:35 UTC

1 07268U 74024D   26257.44111459 -.00000027  00000-0 -58703-4 0  9999
2 07268  74.0143 252.9883 0093927 152.7621 207.8409 12.63696198416962

AllMySatでCOSMOS 644をリアルタイム追跡

Download on the App Store